Schneifelwetter: Wetterstation Hallschlag, 537 m . NN
Wetterdaten: Montag, 26.04.2010
Datum Zeit Temp. A. Feuchte A. Luftdruck Regen Wind Richtung Richtung Sonnenschein Helligkeit T Regen Taupunkt Windchill
26.04.2010 00:08 9,2 C 79 % 1021 hPa 0,3 l/m 4,8 km/h (1 Bft) W 260 0 min 0 lux 15,00 min 5,8 C 9,2 C
26.04.2010 00:23 9,2 C 80 % 1021 hPa 0,3 l/m 4,8 km/h (1 Bft) W-SW 250 0 min 0 lux 15,00 min 5,9 C 9,2 C
26.04.2010 00:38 9,0 C 80 % 1021 hPa 0,0 l/m 4,6 km/h (1 Bft) SW22.5 225 0 min 0 lux 0,00 min 5,7 C 9,0 C
26.04.2010 00:53 8,8 C 80 % 1021 hPa 0,0 l/m 0,4 km/h (0 Bft) SW 235 0 min 0 lux 0,00 min 5,5 C 8,8 C
26.04.2010 01:08 8,6 C 80 % 1021 hPa 0,0 l/m 4,8 km/h (1 Bft) SW 235 0 min 0 lux 0,00 min 5,3 C 8,6 C
26.04.2010 01:23 8,3 C 80 % 1021 hPa 0,0 l/m 2,0 km/h (1 Bft) SW 235 0 min 0 lux 0,00 min 5,1 C 8,3 C
26.04.2010 01:38 8,1 C 82 % 1021 hPa 0,0 l/m 5,2 km/h (1 Bft) SW 235 0 min 0 lux 0,00 min 5,2 C 8,1 C
26.04.2010 01:54 7,5 C 82 % 1021 hPa 0,0 l/m 0,6 km/h (0 Bft) SW 235 0 min 0 lux 0,00 min 4,6 C 7,5 C
26.04.2010 02:09 6,8 C 82 % 1021 hPa 0,0 l/m 0,0 km/h (0 Bft) SW 235 0 min 0 lux 0,00 min 3,9 C 6,8 C
26.04.2010 02:24 6,8 C 85 % 1021 hPa 0,0 l/m 8,4 km/h (2 Bft) W-SW 250 0 min 0 lux 0,00 min 4,5 C 5,2 C
26.04.2010 02:39 6,9 C 87 % 1021 hPa 0,0 l/m 8,3 km/h (2 Bft) W-SW 255 0 min 0 lux 0,00 min 4,9 C 5,4 C
26.04.2010 02:54 6,8 C 85 % 1021 hPa 0,0 l/m 5,1 km/h (1 Bft) W-SW 255 0 min 0 lux 0,00 min 4,5 C 6,8 C
26.04.2010 03:09 6,1 C 85 % 1021 hPa 0,0 l/m 0,0 km/h (0 Bft) W-SW 255 0 min 0 lux 0,00 min 3,8 C 6,1 C
26.04.2010 03:24 5,6 C 85 % 1021 hPa 0,0 l/m 0,0 km/h (0 Bft) W-SW 255 0 min 0 lux 0,00 min 3,3 C 5,6 C
26.04.2010 03:39 5,2 C 86 % 1021 hPa 0,0 l/m 0,3 km/h (0 Bft) W-SW 255 0 min 0 lux 0,00 min 3,1 C 5,2 C
26.04.2010 03:54 4,8 C 86 % 1021 hPa 0,0 l/m 0,0 km/h (0 Bft) W-SW 255 0 min 0 lux 0,00 min 2,7 C 4,8 C
26.04.2010 04:09 4,4 C 87 % 1021 hPa 0,0 l/m 0,0 km/h (0 Bft) W-SW 255 0 min 0 lux 0,00 min 2,4 C 4,4 C
26.04.2010 04:24 4,2 C 87 % 1021 hPa 0,0 l/m 0,0 km/h (0 Bft) W-SW 255 0 min 0 lux 0,00 min 2,2 C 4,2 C
26.04.2010 04:39 4,2 C 88 % 1021 hPa 0,0 l/m 0,0 km/h (0 Bft) W-SW 255 0 min 0 lux 0,00 min 2,4 C 4,2 C
26.04.2010 04:54 4,1 C 88 % 1021 hPa 0,0 l/m 0,0 km/h (0 Bft) W-SW 255 0 min 0 lux 0,00 min 2,3 C 4,1 C
26.04.2010 05:09 3,9 C 88 % 1021 hPa 0,0 l/m 0,0 km/h (0 Bft) W-SW 255 0 min 0 lux 0,00 min 2,1 C 3,9 C
26.04.2010 05:24 3,7 C 89 % 1021 hPa 0,0 l/m 0,0 km/h (0 Bft) W-SW 255 0 min 0 lux 0,00 min 2,1 C 3,7 C
26.04.2010 05:39 3,8 C 90 % 1021 hPa 0,0 l/m 0,0 km/h (0 Bft) W-SW 255 0 min 0 lux 0,00 min 2,3 C 3,8 C
26.04.2010 05:54 4,0 C 91 % 1021 hPa 0,0 l/m 0,0 km/h (0 Bft) W-SW 255 0 min 0 lux 0,00 min 2,7 C 4,0 C
26.04.2010 06:09 4,4 C 92 % 1021 hPa 0,0 l/m 0,5 km/h (0 Bft) W-SW 255 0 min 122 lux 0,00 min 3,2 C 4,4 C
26.04.2010 06:24 4,9 C 92 % 1021 hPa 0,0 l/m 5,6 km/h (1 Bft) W-SW 255 0 min 411 lux 0,00 min 3,7 C 4,9 C
26.04.2010 06:39 5,6 C 92 % 1021 hPa 0,0 l/m 7,3 km/h (2 Bft) W-SW 250 0 min 1,08 klux 0,00 min 4,4 C 4,8 C
26.04.2010 06:54 6,0 C 92 % 1021 hPa 0,0 l/m 13,0 km/h (3 Bft) W22.5 260 0 min 3,36 klux 0,00 min 4,8 C 1,3 C
26.04.2010 07:09 6,4 C 92 % 1022 hPa 0,0 l/m 18,3 km/h (3 Bft) W22.5 260 0 min 3,38 klux 0,00 min 5,2 C -0,7 C
26.04.2010 07:24 6,8 C 92 % 1022 hPa 0,0 l/m 15,0 km/h (3 Bft) W22.5 260 0 min 4,31 klux 0,00 min 5,6 C 1,3 C
26.04.2010 07:39 7,2 C 92 % 1022 hPa 0,0 l/m 21,6 km/h (4 Bft) W-SW22.5 255 0 min 6,66 klux 0,00 min 6,0 C -0,9 C
26.04.2010 08:00 7,4 C 92 % 1022 hPa 0,0 l/m 20,0 km/h (4 Bft) W-SW22.5 255 0 min 6,43 klux 0,00 min 6,2 C -0,1 C
26.04.2010 08:14 7,6 C 91 % 1022 hPa 0,0 l/m 24,2 km/h (4 Bft) W-SW22.5 255 0 min 7,91 klux 0,00 min 6,2 C -1,2 C
26.04.2010 08:30 7,7 C 91 % 1022 hPa 0,0 l/m 20,9 km/h (4 Bft) W-SW22.5 250 0 min 10,7 klux 0,00 min 6,3 C 0,0 C
26.04.2010 08:45 8,0 C 90 % 1022 hPa 0,0 l/m 18,6 km/h (3 Bft) W-SW22.5 245 0 min 13,9 klux 0,00 min 6,5 C 1,2 C
26.04.2010 09:00 8,2 C 89 % 1022 hPa 0,0 l/m 18,6 km/h (3 Bft) W-SW22.5 255 0 min 10,0 klux 0,00 min 6,5 C 1,5 C
26.04.2010 09:15 8,5 C 90 % 1022 hPa 0,0 l/m 25,0 km/h (4 Bft) W45 260 0 min 22,7 klux 0,00 min 7,0 C -0,2 C
26.04.2010 09:30 9,0 C 89 % 1022 hPa 0,0 l/m 23,0 km/h (4 Bft) W-SW22.5 250 0 min 30,0 klux 0,00 min 7,3 C 1,0 C
26.04.2010 09:45 9,6 C 88 % 1022 hPa 0,0 l/m 23,7 km/h (4 Bft) W22.5 260 0 min 22,0 klux 0,00 min 7,7 C 1,6 C
26.04.2010 09:59 9,7 C 86 % 1022 hPa 0,0 l/m 21,6 km/h (4 Bft) W22.5 260 0 min 34,8 klux 0,00 min 7,5 C 2,4 C
26.04.2010 10:15 10,4 C 85 % 1022 hPa 0,0 l/m 26,1 km/h (4 Bft) W22.5 265 0 min 34,2 klux 0,00 min 8,0 C 2,1 C
26.04.2010 10:30 11,2 C 83 % 1022 hPa 0,0 l/m 24,8 km/h (4 Bft) W22.5 265 0 min 43,5 klux 0,00 min 8,4 C 3,5 C
26.04.2010 10:45 11,3 C 83 % 1023 hPa 0,0 l/m 27,8 km/h (4 Bft) W-SW22.5 255 0 min 36,0 klux 0,00 min 8,5 C 2,9 C
26.04.2010 11:00 11,6 C 81 % 1023 hPa 0,0 l/m 27,5 km/h (4 Bft) W45 260 15 min 59,1 klux 0,00 min 8,5 C 3,4 C
26.04.2010 11:15 12,4 C 80 % 1023 hPa 0,0 l/m 34,0 km/h (5 Bft) W-SW45 255 15 min 86,0 klux 0,00 min 9,0 C 3,3 C
26.04.2010 11:30 12,9 C 76 % 1023 hPa 0,0 l/m 29,5 km/h (5 Bft) W22.5 260 15 min 86,7 klux 0,00 min 8,8 C 4,8 C
26.04.2010 11:45 13,2 C 75 % 1023 hPa 0,0 l/m 27,2 km/h (4 Bft) W22.5 270 15 min 83,7 klux 0,00 min 8,9 C 5,7 C
26.04.2010 12:00 13,8 C 73 % 1023 hPa 0,0 l/m 32,8 km/h (5 Bft) W-SW45 255 15 min 95,8 klux 0,00 min 9,0 C 5,5 C
26.04.2010 12:15 13,6 C 71 % 1023 hPa 0,0 l/m 28,8 km/h (4 Bft) W45 265 15 min 102 klux 0,00 min 8,4 C 5,9 C
26.04.2010 12:30 12,7 C 74 % 1023 hPa 0,0 l/m 33,5 km/h (5 Bft) W22.5 265 15 min 94,3 klux 0,00 min 8,2 C 3,8 C
26.04.2010 12:45 13,4 C 73 % 1023 hPa 0,0 l/m 34,5 km/h (5 Bft) W45 260 15 min 93,1 klux 0,00 min 8,7 C 4,7 C
26.04.2010 13:00 13,3 C 73 % 1023 hPa 0,0 l/m 29,8 km/h (5 Bft) W22.5 270 15 min 91,6 klux 0,00 min 8,6 C 5,3 C
26.04.2010 13:15 13,4 C 69 % 1023 hPa 0,0 l/m 28,5 km/h (4 Bft) W22.5 260 15 min 92,6 klux 0,00 min 7,8 C 5,7 C
26.04.2010 13:29 13,5 C 71 % 1023 hPa 0,0 l/m 27,2 km/h (4 Bft) W45 270 14 min 92,8 klux 0,00 min 8,3 C 6,1 C
26.04.2010 13:45 13,5 C 68 % 1023 hPa 0,0 l/m 27,9 km/h (4 Bft) W45 275 16 min 92,7 klux 0,00 min 7,7 C 6,0 C
26.04.2010 14:00 14,1 C 65 % 1023 hPa 0,0 l/m 31,0 km/h (5 Bft) W-SW45 255 15 min 106 klux 0,00 min 7,6 C 6,3 C
26.04.2010 14:15 13,6 C 66 % 1023 hPa 0,0 l/m 28,2 km/h (4 Bft) W22.5 275 15 min 92,7 klux 0,00 min 7,4 C 6,1 C
26.04.2010 14:30 13,5 C 64 % 1023 hPa 0,0 l/m 24,9 km/h (4 Bft) W22.5 265 0 min 35,3 klux 0,00 min 6,8 C 6,6 C
26.04.2010 14:45 13,9 C 64 % 1023 hPa 0,0 l/m 19,0 km/h (3 Bft) W67.5 260 15 min 91,8 klux 0,00 min 7,2 C 8,6 C
26.04.2010 15:00 14,4 C 61 % 1023 hPa 0,0 l/m 25,2 km/h (4 Bft) W22.5 265 0 min 37,8 klux 0,00 min 7,0 C 7,8 C
26.04.2010 15:14 14,6 C 64 % 1023 hPa 0,0 l/m 27,9 km/h (4 Bft) W-SW22.5 255 0 min 46,6 klux 0,00 min 7,9 C 7,5 C
26.04.2010 15:15 14,6 C 64 % 1023 hPa 0,0 l/m 27,9 km/h (4 Bft) W-SW22.5 255 0 min 46,6 klux 0,00 min 7,9 C 7,5 C
26.04.2010 15:15 14,6 C 64 % 1023 hPa 0,0 l/m 27,9 km/h (4 Bft) W-SW22.5 255 0 min 46,6 klux 0,00 min 7,9 C 7,5 C
26.04.2010 15:30 14,8 C 62 % 1023 hPa 0,0 l/m 29,7 km/h (5 Bft) W22.5 260 15 min 57,7 klux 0,00 min 7,6 C 7,5 C
26.04.2010 15:45 14,2 C 62 % 1023 hPa 0,0 l/m 21,1 km/h (4 Bft) W22.5 260 0 min 20,9 klux 0,00 min 7,0 C 8,4 C
26.04.2010 16:00 14,0 C 64 % 1023 hPa 0,0 l/m 24,3 km/h (4 Bft) W-SW22.5 255 15 min 56,7 klux 0,00 min 7,3 C 7,4 C
26.04.2010 16:15 13,7 C 63 % 1023 hPa 0,0 l/m 20,1 km/h (4 Bft) W22.5 265 0 min 22,5 klux 0,00 min 6,8 C 8,0 C
26.04.2010 16:30 13,9 C 66 % 1023 hPa 0,0 l/m 20,6 km/h (4 Bft) W22.5 265 15 min 62,7 klux 0,00 min 7,7 C 8,2 C
26.04.2010 16:45 13,9 C 63 % 1023 hPa 0,0 l/m 25,1 km/h (4 Bft) W22.5 260 15 min 67,3 klux 0,00 min 7,0 C 7,1 C
26.04.2010 16:59 13,8 C 65 % 1023 hPa 0,0 l/m 20,1 km/h (4 Bft) W22.5 270 14 min 69,1 klux 0,00 min 7,3 C 8,2 C
26.04.2010 17:15 14,8 C 62 % 1023 hPa 0,0 l/m 20,8 km/h (4 Bft) W-NW45 285 16 min 58,6 klux 0,00 min 7,6 C 9,3 C
26.04.2010 17:30 14,4 C 60 % 1023 hPa 0,0 l/m 17,6 km/h (3 Bft) W45 270 15 min 52,5 klux 0,00 min 6,7 C 9,6 C
26.04.2010 17:45 14,4 C 59 % 1023 hPa 0,0 l/m 21,9 km/h (4 Bft) W22.5 270 15 min 49,9 klux 0,00 min 6,5 C 8,5 C
26.04.2010 18:00 14,0 C 59 % 1023 hPa 0,0 l/m 20,9 km/h (4 Bft) W22.5 275 0 min 46,9 klux 0,00 min 6,1 C 8,2 C
26.04.2010 18:15 13,8 C 60 % 1023 hPa 0,0 l/m 22,2 km/h (4 Bft) W22.5 270 0 min 47,0 klux 0,00 min 6,2 C 7,6 C
26.04.2010 18:30 13,3 C 60 % 1023 hPa 0,0 l/m 19,0 km/h (3 Bft) W22.5 270 0 min 35,8 klux 0,00 min 5,7 C 7,8 C
26.04.2010 18:44 13,2 C 62 % 1023 hPa 0,0 l/m 11,3 km/h (2 Bft) W45 270 0 min 26,5 klux 0,00 min 6,1 C 10,5 C
26.04.2010 19:00 13,2 C 61 % 1023 hPa 0,0 l/m 15,0 km/h (3 Bft) W45 275 0 min 27,3 klux 0,00 min 5,8 C 9,0 C
26.04.2010 19:15 13,0 C 60 % 1023 hPa 0,0 l/m 14,9 km/h (3 Bft) W22.5 275 0 min 25,5 klux 0,00 min 5,4 C 8,8 C
26.04.2010 19:30 13,2 C 61 % 1023 hPa 0,0 l/m 13,6 km/h (3 Bft) W45 275 0 min 24,5 klux 0,00 min 5,8 C 9,5 C
26.04.2010 19:45 12,9 C 61 % 1023 hPa 0,0 l/m 16,6 km/h (3 Bft) W-NW22.5 285 0 min 19,8 klux 0,00 min 5,6 C 8,1 C
26.04.2010 20:00 12,3 C 62 % 1023 hPa 0,0 l/m 14,8 km/h (3 Bft) W45 280 0 min 13,8 klux 0,00 min 5,2 C 8,0 C
26.04.2010 20:15 11,5 C 64 % 1023 hPa 0,0 l/m 12,7 km/h (3 Bft) W22.5 280 0 min 8,97 klux 0,00 min 4,9 C 7,9 C
26.04.2010 20:30 10,8 C 65 % 1023 hPa 0,0 l/m 12,8 km/h (3 Bft) W22.5 275 0 min 3,27 klux 0,00 min 4,5 C 7,1 C
26.04.2010 20:45 10,0 C 66 % 1023 hPa 0,0 l/m 8,0 km/h (2 Bft) W 270 0 min 1,40 klux 0,00 min 3,9 C 8,9 C
26.04.2010 21:00 9,2 C 68 % 1023 hPa 0,0 l/m 5,8 km/h (2 Bft) W 265 0 min 414 lux 0,00 min 3,6 C 9,2 C
26.04.2010 21:15 8,4 C 68 % 1023 hPa 0,0 l/m 3,8 km/h (1 Bft) W 265 0 min 87 lux 0,00 min 2,8 C 8,4 C
26.04.2010 21:30 7,4 C 71 % 1024 hPa 0,0 l/m 0,0 km/h (0 Bft) W 265 0 min 12 lux 0,00 min 2,5 C 7,4 C
26.04.2010 21:45 6,7 C 73 % 1024 hPa 0,0 l/m 0,0 km/h (0 Bft) W 265 0 min 0 lux 0,00 min 2,2 C 6,7 C
26.04.2010 21:59 6,0 C 74 % 1024 hPa 0,0 l/m 0,0 km/h (0 Bft) W 265 0 min 0 lux 0,00 min 1,7 C 6,0 C
26.04.2010 22:15 5,5 C 77 % 1024 hPa 0,0 l/m 8,3 km/h (2 Bft) W 265 0 min 0 lux 0,00 min 1,8 C 3,9 C
26.04.2010 22:30 5,3 C 78 % 1024 hPa 0,0 l/m 6,3 km/h (2 Bft) W 265 0 min 0 lux 0,00 min 1,8 C 5,3 C
26.04.2010 22:45 4,7 C 79 % 1024 hPa 0,0 l/m 3,6 km/h (1 Bft) W 265 0 min 0 lux 0,00 min 1,4 C 4,7 C
26.04.2010 23:00 4,6 C 79 % 1024 hPa 0,0 l/m 1,0 km/h (0 Bft) W 265 0 min 0 lux 0,00 min 1,3 C 4,6 C
26.04.2010 23:15 4,2 C 79 % 1025 hPa 0,0 l/m 0,0 km/h (0 Bft) W 265 0 min 0 lux 0,00 min 0,9 C 4,2 C
26.04.2010 23:30 3,7 C 80 % 1025 hPa 0,0 l/m 0,0 km/h (0 Bft) W 265 0 min 0 lux 0,00 min 0,6 C 3,7 C
26.04.2010 23:44 3,4 C 81 % 1025 hPa 0,0 l/m 4,2 km/h (1 Bft) W 265 0 min 0 lux 0,00 min 0,5 C 3,4 C
_ Min-Zeit 23:44 17:45 00:08 - 02:09 - - - - - 23:44 08:14
Minimum _ 3,4 C 59 % 1021 hPa - 0,0 km/h (0 Bft) - - - - - 0,5 C -1,2 C
_ Max-Zeit 15:30 06:09 23:15 00:08 12:45 - - 13:45 14:00 00:08 11:15 18:44
Maximum _ 14,8 C 92 % 1025 hPa 0,3 l/m 34,5 km/h
W (5 Bft)
- - 16 min 106 klux 15,00 min 9,0 C 10,5 C
Durchschnitt _ 9,6 C 76 % 1023 hPa #0,6 l/m 14,6 km/h (3 Bft) W - #5:45 h 27,5 klux #30 min. 5,5 C 5,6 C